This demonstration page uses our WeatherBlox Daily Observations layout. Learn more.

Left ArrowRight Arrow

Hourly Observations for August 21, 2021

Temp ( °F °C ) Dew Point ( °F °C ) Humidity (%) Winds ( mph kmh ) Pressure ( in mb ) Visibility ( mi km ) Precip ( " mm )
12:51 am 00:51 Clear 74 23.3 63 17.2 69 69 Calm 29.72 1007 10 16 0.00 0.00
1:51 am 01:51 Clear 71 21.7 62 16.7 73 73 SE 6 9 29.72 1007 10 16 0.00 0.00
2:51 am 02:51 Clear 70 21.1 62 16.7 76 76 Calm 29.72 1007 10 16 0.00 0.00
3:51 am 03:51 Clear 70 21.1 61 16.1 73 73 SSE 3 6 29.73 1007 10 16 0.00 0.00
4:51 am 04:51 Clear 68 20 60 15.6 76 76 E 5 7 29.74 1007 10 16 0.00 0.00
5:51 am 05:51 Sunny 66 18.9 60 15.6 81 81 E 3 6 29.75 1008 10 16 0.00 0.00
6:51 am 06:51 Sunny 71 21.7 61 16.1 71 71 WNW 3 6 29.77 1008 10 16 0.00 0.00
7:51 am 07:51 Sunny 76 24.4 63 17.2 64 64 Calm 29.78 1009 10 16 0.00 0.00
8:51 am 08:51 Sunny 82 27.8 61 16.1 49 49 VRB 3 6 29.77 1008 10 16 0.00 0.00
9:51 am 09:51 Sunny 86 30 58 14.4 39 39 SE 7 11 29.77 1008 10 16 0.00 0.00
10:51 am 10:51 Sunny 88 31.1 59 15 38 38 VRB 5 7 29.76 1008 10 16 0.00 0.00
11:51 am 11:51 Sunny 91 32.8 59 15 34 34 VRB 5 7 29.74 1007 10 16 0.00 0.00
12:51 pm 12:51 Sunny 93 33.9 57 13.9 30 30 VRB 7 11 29.72 1007 10 16 0.00 0.00
1:51 pm 13:51 Sunny 94 34.4 54 12.2 26 26 SSW 7 11 29.71 1006 10 16 0.00 0.00
2:51 pm 14:51 Sunny 96 35.6 53 11.7 23 23 VRB 6 9 29.68 1005 10 16 0.00 0.00
3:51 pm 15:51 Sunny 97 36.1 49 9.4 20 20 SW 12 19 29.65 1004 10 16 0.00 0.00
4:51 pm 16:51 Sunny 97 36.1 50 10 20 20 undefined N/A 29.64 1004 10 16 0.00 0.00
5:51 pm 17:51 Sunny 96 35.6 50 10 21 21 NW 8 13 29.64 1004 10 16 0.00 0.00
6:51 pm 18:51 Sunny 90 32.2 56 13.3 32 32 NW 5 7 29.65 1004 10 16 0.00 0.00
7:51 pm 19:51 Clear 84 28.9 57 13.9 40 40 N 6 9 29.67 1005 10 16 0.00 0.00
8:51 pm 20:51 Clear 80 26.7 59 15 49 49 NW 7 11 29.68 1005 10 16 0.00 0.00
9:51 pm 21:51 Clear 79 26.1 59 15 50 50 NNW 7 11 29.68 1005 10 16 0.00 0.00
10:51 pm 22:51 Clear 76 24.4 58 14.4 54 54 ESE 5 7 29.69 1006 10 16 0.00 0.00
11:51 pm 23:51 Clear 77 25 58 14.4 52 52 SSE 6 9 29.70 1006 10 16 0.00 0.00

Powered by AerisWeather